This is the latest recevied weather packets stored in our database for station/object KC7YCE. If no packets are shown the sender has not sent any weather packets the latest 10 day(s).
| Time | Temp. | Humidity | Pressure | Rain* | Wind** | Luminosity | Snow |
|---|---|---|---|---|---|---|---|
| 1777453595 | -6.11° C | 83% | 1023.8 hPa | 0 mm | - | - | - |
| 1777452995 | -6.11° C | 83% | 1023.9 hPa | 0 mm | - | - | - |
| 1777452365 | -6.11° C | 82% | 1023.9 hPa | 0 mm | - | - | - |
| 1777450537 | -5.56° C | 83% | 1024.1 hPa | 0 mm | - | - | - |
| 1777449336 | -5.56° C | 84% | 1024.2 hPa | 0 mm | - | - | - |
| 1777448737 | -5° C | 85% | 1024.3 hPa | 0 mm | - | - | - |
| 1777444534 | -4.44° C | 88% | 1024.4 hPa | 0 mm | - | - | - |
| 1777442734 | -4.44° C | 91% | 1024.4 hPa | 0 mm | - | - | - |
| 1777440934 | -3.89° C | 91% | 1024.3 hPa | 0 mm | - | - | - |
| 1777440336 | -3.89° C | 90% | 1024.2 hPa | 0 mm | - | - | - |
| 1777439734 | -3.89° C | 90% | 1024.2 hPa | 0 mm | - | - | - |
| 1777438534 | -3.33° C | 89% | 1024 hPa | 0 mm | - | - | - |
| 1777437934 | -3.33° C | 88% | 1024 hPa | 0 mm | - | - | - |
| 1777437334 | -2.78° C | 88% | 1023.9 hPa | 0 mm | - | - | - |
| 1777436734 | -2.78° C | 87% | 1023.9 hPa | 0 mm | - | - | - |
| 1777436103 | -2.78° C | 88% | 1023.8 hPa | 0 mm | - | - | - |
| 1777435503 | -2.22° C | 88% | 1023.7 hPa | 0 mm | - | - | - |
| 1777434903 | -2.22° C | 87% | 1023.7 hPa | 0 mm | - | - | - |
| 1777434303 | -2.22° C | 86% | 1023.6 hPa | 0 mm | - | - | - |
| 1777433703 | -1.67° C | 86% | 1023.5 hPa | 0 mm | - | - | - |
| 1777433073 | -1.67° C | 85% | 1023.4 hPa | 0 mm | - | - | - |
| 1777432473 | -1.67° C | 85% | 1023.3 hPa | 0 mm | - | - | - |
| 1777431977 | -1.11° C | 84% | 1023.2 hPa | 0 mm | - | - | - |
| 1777431873 | -1.11° C | 84% | 1023.2 hPa | 0 mm | - | - | - |
| 1777431324 | -1.11° C | 83% | 1023.2 hPa | 0 mm | - | - | - |
* Rain latest hour (hover to see other rain measurements)
** Current wind speed in m/s (hover to see current wind gust speed)